ONEWEB-0305 (49093 NORAD) Tracking and Keplerian Element Data

This shows tracking and keplerian element data for the satellite.

Feedback or suggestion? Click here.




ElementValue
Catalog49093
NameONEWEB-0305
Epoch Orbit559
Epoch Day262.16668981
Epoch Year2021
RAAN356.4406
Inclination87.4256
Eccentricity0.0021
Argument of Perigee186.8323
Mean Anonmoly29.709
Mean Motion15.15786604
Decay Rate-0.00902039
L11 49093U 21075U 21262.16668981 -.00902039 00000-0 -50658-1 0 9998
L22 49093 87.4256 356.4406 0021000 186.8323 29.7090 15.15786604 5590

Live tracking and technical data element details for ONEWEB-0305 (NORAD 49093). ONEWEB-0305 can be tracked NOW for your location showing map with azimuth and elevation plus other details from your city location.

Track the satellite on the map from your city or location and see movement details for azimuth, elevation, latitude, longitude, range, height, and movement on the map or in text.







IsCatalogInMostPopularTable: catalog: 49093, numindb: 5
Update: records affected: 1



GetName: 49093 ONEWEB-0305

Hit Count: updated at: Fri, 24 Sep 2021 18:01:34 GMT